KD4EG Weather Reports


time (UTC)temp
C
wind
direction
speed
KPH
gust
KPH
rain 1hr
cm
rain 24hr
cm
rain mn
cm
humidity
%
barometer
mb
20260505083527 12 303 0.0 0.0 0.00 0.00 0.00 73 1015.9
20260505083023 12 298 1.6 1.6 0.00 0.00 0.00 73 1015.8
20260505082519 12 321 1.6 1.6 0.00 0.00 0.00 74 1015.6
20260505082016 12 305 0.0 0.0 0.00 0.00 0.00 72 1015.5
20260505081512 13 298 0.0 1.6 0.00 0.00 0.00 70 1015.6
20260505081009 12 299 3.2 3.2 0.00 0.00 0.00 68 1015.6
20260505080506 13 349 1.6 1.6 0.00 0.00 0.00 72 1015.5
20260505080002 13 298 0.0 1.6 0.00 0.00 0.00 69 1015.6
20260505075458 15 280 1.6 1.6 0.00 0.00 0.00 65 1015.7
20260505074955 15 306 0.0 1.6 0.00 0.00 0.00 61 1015.4
20260505074453 15 300 0.0 0.0 0.00 0.00 0.00 63 1015.5
20260505073950 15 304 1.6 1.6 0.00 0.00 0.00 62 1015.3
20260505073447 13 334 3.2 3.2 0.00 0.00 0.00 67 1015.5
20260505072944 14 305 0.0 1.6 0.00 0.00 0.00 67 1015.4
20260505072440 13 321 0.0 0.0 0.00 0.00 0.00 66 1015.4
20260505071937 13 320 0.0 0.0 0.00 0.00 0.00 66 1015.4
20260505071432 13 305 0.0 0.0 0.00 0.00 0.00 68 1015.2
20260505070931 13 317 1.6 1.6 0.00 0.00 0.00 67 1015.2
20260505070427 14 305 0.0 0.0 0.00 0.00 0.00 64 1015.2
20260505065923 14 335 1.6 1.6 0.00 0.00 0.00 64 1015.0
20260505065419 14 315 0.0 0.0 0.00 0.00 0.00 65 1015.0
20260505064916 13 306 0.0 0.0 0.00 0.00 0.00 66 1015.3
20260505064414 13 318 0.0 0.0 0.00 0.00 0.00 66 1015.0
20260505063912 13 304 1.6 1.6 0.00 0.00 0.00 65 1014.9
20260505063408 13 330 0.0 1.6 0.00 0.00 0.00 66 1015.2
20260505062904 13 295 0.0 0.0 0.00 0.00 0.00 66 1015.1
20260505062402 14 306 0.0 0.0 0.00 0.00 0.00 65 1015.2
20260505061858 14 306 0.0 0.0 0.00 0.00 0.00 65 1015.1
20260505061357 14 306 0.0 0.0 0.00 0.00 0.00 64 1015.0
20260505060854 15 303 0.0 0.0 0.00 0.00 0.00 63 1015.0
20260505060350 15 303 0.0 0.0 0.00 0.00 0.00 61 1015.1
20260505055847 15 317 0.0 0.0 0.00 0.00 0.00 61 1015.0
20260505055342 15 303 1.6 1.6 0.00 0.00 0.00 61 1015.0
20260505054840 16 301 0.0 1.6 0.00 0.00 0.00 57 1015.2
20260505054337 16 299 1.6 1.6 0.00 0.00 0.00 58 1015.0
20260505053835 17 225 3.2 4.8 0.00 0.00 0.00 53 1015.0
20260505053332 16 281 1.6 1.6 0.00 0.00 0.00 55 1015.0
20260505052829 16 309 1.6 1.6 0.00 0.00 0.00 58 1014.9
20260505052326 16 285 1.6 1.6 0.00 0.00 0.00 57 1015.2
20260505051823 17 328 1.6 1.6 0.00 0.00 0.00 55 1014.9
20260505051320 17 276 0.0 0.0 0.00 0.00 0.00 52 1015.0
20260505050818 18 280 1.6 3.2 0.00 0.00 0.00 50 1014.9
20260505050317 18 327 0.0 1.6 0.00 0.00 0.00 50 1014.9
20260505041746 19 3 4.8 4.8 0.00 0.00 0.00 48 1014.8
20260505041243 20 3 3.2 4.8 0.00 0.00 0.00 47 1014.8
20260505040741 19 318 1.6 1.6 0.00 0.00 0.00 48 1014.9
20260505040238 20 303 3.2 3.2 0.00 0.00 0.00 47 1014.8
20260505035735 20 359 6.4 8.0 0.00 0.00 0.00 47 1015.0
20260505035231 20 311 3.2 3.2 0.00 0.00 0.00 48 1015.1
20260505034728 20 296 1.6 3.2 0.00 0.00 0.00 48 1015.0
20260505034225 19 311 8.0 9.7 0.00 0.00 0.00 48 1015.1
20260505033721 18 318 6.4 8.0 0.00 0.00 0.00 51 1015.1
20260505033219 18 245 4.8 4.8 0.00 0.00 0.00 54 1015.1
20260505032717 17 295 0.0 0.0 0.00 0.00 0.00 59 1015.0
20260505032212 17 291 0.0 0.0 0.00 0.00 0.00 60 1015.0
20260505031710 17 239 0.0 1.6 0.00 0.00 0.00 61 1015.1
20260505031206 17 263 3.2 3.2 0.00 0.00 0.00 59 1015.3
20260505030703 17 298 0.0 1.6 0.00 0.00 0.00 58 1015.3
20260505030159 17 320 4.8 8.0 0.00 0.00 0.00 58 1014.8
20260505025655 17 290 3.2 4.8 0.00 0.00 0.00 59 1014.9
20260505025154 17 288 1.6 1.6 0.00 0.00 0.00 61 1015.1
20260505024651 16 316 3.2 3.2 0.00 0.00 0.00 64 1014.9
20260505024148 16 308 3.2 3.2 0.00 0.00 0.00 65 1015.1
20260505023646 16 316 1.6 1.6 0.00 0.00 0.00 66 1015.0
20260505023143 16 298 0.0 1.6 0.00 0.00 0.00 66 1015.2
20260505022640 16 304 1.6 1.6 0.00 0.00 0.00 66 1015.1
20260505022137 16 306 1.6 1.6 0.00 0.00 0.00 66 1015.0
20260505021634 16 298 1.6 1.6 0.00 0.00 0.00 67 1015.3
20260505021131 16 306 1.6 1.6 0.00 0.00 0.00 67 1015.0
20260505020626 16 300 3.2 3.2 0.00 0.00 0.00 67 1015.1
20260505020123 16 310 1.6 1.6 0.00 0.00 0.00 67 1015.1
20260505015620 16 302 1.6 1.6 0.00 0.00 0.00 68 1015.0
20260505015116 16 304 1.6 3.2 0.00 0.00 0.00 67 1015.2
20260505014613 16 300 1.6 1.6 0.00 0.00 0.00 67 1015.0
20260505014110 16 303 3.2 3.2 0.00 0.00 0.00 66 1015.0
20260505013608 16 284 1.6 3.2 0.00 0.00 0.00 66 1015.1
20260505013105 16 290 3.2 3.2 0.00 0.00 0.00 66 1014.8
20260505012603 17 301 3.2 3.2 0.00 0.00 0.00 65 1014.8
20260505012059 17 294 1.6 1.6 0.00 0.00 0.00 63 1014.9
20260505011555 17 296 1.6 1.6 0.00 0.00 0.00 63 1014.6
20260505011053 17 305 1.6 1.6 0.00 0.00 0.00 63 1014.5
20260505010548 17 290 3.2 3.2 0.00 0.00 0.00 63 1014.4
20260505010044 17 299 1.6 3.2 0.00 0.00 0.00 63 1014.5
20260505005541 17 292 1.6 1.6 0.00 0.00 0.00 63 1014.4
20260505005038 18 293 3.2 3.2 0.00 0.00 0.00 62 1014.3
20260505004535 18 299 1.6 1.6 0.00 0.00 0.00 63 1014.2
20260505004032 18 286 3.2 3.2 0.00 0.00 0.00 62 1014.0
20260505003529 18 298 1.6 1.6 0.00 0.00 0.00 62 1014.0
20260505003026 19 297 0.0 1.6 0.00 0.00 0.00 60 1014.0
20260505002521 19 293 1.6 3.2 0.00 0.00 0.00 59 1013.9
20260505002021 20 293 3.2 3.2 0.00 0.00 0.00 58 1013.8
20260505001517 20 294 3.2 3.2 0.00 0.00 0.00 58 1013.7
20260505001014 20 300 3.2 3.2 0.00 0.00 0.00 56 1013.9
20260505000512 21 293 3.2 3.2 0.00 0.00 0.00 52 1013.8
20260505000009 22 298 3.2 3.2 0.00 0.00 0.00 49 1013.7
20260504235506 22 301 1.6 3.2 0.00 0.00 0.00 45 1013.7
20260504235002 23 296 0.0 1.6 0.00 0.00 0.00 44 1013.6
20260504234500 23 316 3.2 3.2 0.00 0.00 0.00 41 1013.5
20260504233956 23 320 1.6 3.2 0.00 0.00 0.00 41 1013.5
20260504233451 24 292 1.6 3.2 0.00 0.00 0.00 40 1013.4
20260504232949 24 308 3.2 3.2 0.00 0.00 0.00 40 1013.6
20260504232446 25 258 6.4 9.7 0.00 0.00 0.00 40 1013.6
20260504231943 25 293 1.6 1.6 0.00 0.00 0.00 40 1013.4
20260504231439 25 262 3.2 3.2 0.00 0.00 0.00 40 1013.6
20260504230935 24 326 4.8 8.0 0.00 0.00 0.00 40 1013.5
20260504230432 25 135 8.0 11.3 0.00 0.00 0.00 39 1013.5
20260504225932 25 161 4.8 8.0 0.00 0.00 0.00 39 1013.4
20260504225428 25 92 4.8 4.8 0.00 0.00 0.00 39 1013.7
20260504224925 25 259 1.6 3.2 0.00 0.00 0.00 39 1013.4
20260504224422 25 285 3.2 3.2 0.00 0.00 0.00 39 1013.6
20260504223919 25 301 8.0 11.3 0.00 0.00 0.00 38 1013.6
20260504223414 25 306 4.8 4.8 0.00 0.00 0.00 39 1013.7
20260504222910 25 176 9.7 12.9 0.00 0.00 0.00 38 1013.4
20260504222408 25 299 3.2 4.8 0.00 0.00 0.00 39 1013.7
20260504221906 25 328 8.0 11.3 0.00 0.00 0.00 40 1013.7
20260504221402 25 307 3.2 3.2 0.00 0.00 0.00 40 1013.8
20260504220900 26 287 8.0 16.1 0.00 0.00 0.00 40 1013.9
20260504220356 25 281 1.6 1.6 0.00 0.00 0.00 41 1013.9
20260504215853 25 218 3.2 4.8 0.00 0.00 0.00 41 1014.0
20260504215350 25 228 3.2 8.0 0.00 0.00 0.00 40 1014.0
20260504214846 25 189 1.6 3.2 0.00 0.00 0.00 41 1013.9
20260504214343 25 351 8.0 11.3 0.00 0.00 0.00 40 1014.0
20260504213840 25 310 3.2 3.2 0.00 0.00 0.00 41 1013.9
20260504213335 25 248 1.6 3.2 0.00 0.00 0.00 42 1014.0
20260504212833 25 242 6.4 12.9 0.00 0.00 0.00 41 1014.2
20260504212329 25 178 8.0 9.7 0.00 0.00 0.00 41 1014.1
20260504211827 25 235 0.0 1.6 0.00 0.00 0.00 42 1014.1
20260504211322 25 300 6.4 8.0 0.00 0.00 0.00 42 1014.1
20260504210820 25 200 6.4 8.0 0.00 0.00 0.00 42 1013.7
20260504210317 24 111 8.0 12.9 0.00 0.00 0.00 43 1014.0
20260504205814 24 201 6.4 11.3 0.00 0.00 0.00 43 1013.9
20260504205312 24 294 6.4 8.0 0.00 0.00 0.00 43 1013.9
20260504204810 25 164 11.3 17.7 0.00 0.00 0.00 43 1013.8
20260504204308 24 301 3.2 3.2 0.00 0.00 0.00 44 1014.0
20260504203807 25 132 11.3 12.9 0.00 0.00 0.00 42 1013.9
20260504203304 24 330 3.2 3.2 0.00 0.00 0.00 44 1013.9
20260504202758 24 177 4.8 4.8 0.00 0.00 0.00 44 1013.8
20260504202256 23 294 4.8 4.8 0.00 0.00 0.00 44 1014.0
20260504201753 23 268 3.2 3.2 0.00 0.00 0.00 45 1014.1
20260504201250 23 167 8.0 9.7 0.00 0.00 0.00 45 1014.2
20260504200748 23 315 8.0 11.3 0.00 0.00 0.00 45 1014.4
20260504200243 23 61 8.0 12.9 0.00 0.00 0.00 44 1014.6
20260504195740 23 191 4.8 4.8 0.00 0.00 0.00 44 1014.6
20260504195236 23 167 8.0 11.3 0.00 0.00 0.00 45 1014.7
20260504194734 23 167 3.2 3.2 0.00 0.00 0.00 46 1014.6
20260504194229 23 251 3.2 3.2 0.00 0.00 0.00 45 1014.6
20260504193726 23 144 6.4 9.7 0.00 0.00 0.00 45 1014.6
20260504193224 23 213 8.0 9.7 0.00 0.00 0.00 45 1014.6
20260504192722 22 335 4.8 4.8 0.00 0.00 0.00 45 1015.1
20260504192220 22 86 4.8 4.8 0.00 0.00 0.00 46 1014.9
20260504191718 22 339 1.6 3.2 0.00 0.00 0.00 45 1015.2
20260504191215 22 201 8.0 9.7 0.00 0.00 0.00 45 1015.0
20260504190710 22 198 6.4 11.3 0.00 0.00 0.00 46 1015.3
20260504190206 22 182 14.5 20.9 0.00 0.00 0.00 46 1015.2
20260504185703 23 288 1.6 3.2 0.00 0.00 0.00 44 1015.1
20260504185159 22 222 8.0 9.7 0.00 0.00 0.00 45 1015.3
20260504184656 22 183 12.9 14.5 0.00 0.00 0.00 45 1015.3
20260504184151 22 290 6.4 8.0 0.00 0.00 0.00 45 1015.4
20260504183648 21 151 6.4 9.7 0.00 0.00 0.00 47 1015.2
20260504183145 21 165 9.7 11.3 0.00 0.00 0.00 47 1015.6
20260504182643 21 208 6.4 11.3 0.00 0.00 0.00 47 1015.7
20260504182140 21 149 1.6 4.8 0.00 0.00 0.00 47 1015.6
20260504181638 21 228 6.4 8.0 0.00 0.00 0.00 47 1015.8
20260504181135 21 184 8.0 9.7 0.00 0.00 0.00 46 1015.8
20260504180634 21 306 3.2 8.0 0.00 0.00 0.00 46 1015.9
20260504180132 21 305 8.0 11.3 0.00 0.00 0.00 46 1016.0
20260504175629 21 190 3.2 3.2 0.00 0.00 0.00 46 1015.8
20260504175126 21 246 6.4 9.7 0.00 0.00 0.00 46 1016.2
20260504174624 22 308 3.2 4.8 0.00 0.00 0.00 45 1016.3
20260504174120 22 218 8.0 11.3 0.00 0.00 0.00 44 1016.3
20260504173617 22 185 9.7 14.5 0.00 0.00 0.00 43 1016.2
20260504173115 22 260 9.7 12.9 0.00 0.00 0.00 44 1016.3
20260504172611 22 149 17.7 24.1 0.00 0.00 0.00 44 1016.0
20260504172108 21 282 9.7 12.9 0.00 0.00 0.00 45 1016.5
20260504171604 22 43 4.8 8.0 0.00 0.00 0.00 45 1016.5
20260504171101 22 165 4.8 9.7 0.00 0.00 0.00 44 1016.5
20260504170557 22 345 4.8 8.0 0.00 0.00 0.00 43 1016.5
20260504150941 18 279 9.7 12.9 0.00 0.00 0.00 46 1017.8
20260504150438 18 213 8.0 11.3 0.00 0.00 0.00 46 1018.1
20260504140904 16 135 11.3 17.7 0.00 0.00 0.00 49 1018.2
20260504140400 16 290 12.9 20.9 0.00 0.00 0.00 50 1018.5
20260504130325 14 268 11.3 16.1 0.00 0.00 0.00 51 1018.2
20260504120248 10 199 3.2 3.2 0.00 0.00 0.00 66 1018.4
20260504110716 8 274 0.0 0.0 0.00 0.00 0.00 69 1018.5
20260504110212 8 287 1.6 1.6 0.00 0.00 0.00 69 1018.3
20260504100131 8 295 1.6 1.6 0.00 0.00 0.00 69 1018.3